VV646B KGSB-KFFA

Flight info

Callsign VV646B
Flight time 0h 50m
Altitude VFR
Route
Aircraft H60/M-DOV/C

Departure

Time 2026-05-07 00:35
Airport Seymour Johnson Air Force Base (KGSB)

Arrival

Time 2026-05-07 01:25
Airport First Flight Airport (KFFA)
Time Latitude Longitude Altitude Speed Heading
2026-05-07 00:34 35.34281 -77.96392 86 ft 0 kts 72°
2026-05-07 00:34 35.34331 -77.96234 210 ft 59 kts 77°
2026-05-07 00:35 35.34542 -77.95448 510 ft 132 kts 78°
2026-05-07 00:35 35.34940 -77.94225 833 ft 171 kts 61°
2026-05-07 00:35 35.35550 -77.93032 860 ft 157 kts 58°
2026-05-07 00:35 35.36124 -77.91974 892 ft 145 kts 58°
2026-05-07 00:36 35.36675 -77.90974 884 ft 139 kts 58°
2026-05-07 00:36 35.37218 -77.90002 889 ft 137 kts 58°
2026-05-07 00:36 35.37760 -77.89040 888 ft 137 kts 58°
2026-05-07 00:36 35.38297 -77.88078 890 ft 136 kts 58°
2026-05-07 00:37 35.38828 -77.87116 890 ft 137 kts 58°
2026-05-07 00:37 35.39188 -77.86481 890 ft 137 kts 58°
2026-05-07 00:37 35.39895 -77.85191 889 ft 137 kts 58°
2026-05-07 00:37 35.40428 -77.84236 894 ft 135 kts 58°
2026-05-07 00:38 35.40956 -77.83284 894 ft 135 kts 58°
2026-05-07 00:38 35.41472 -77.82329 891 ft 134 kts 58°
2026-05-07 00:38 35.41824 -77.81693 895 ft 133 kts 58°
2026-05-07 00:38 35.42342 -77.80764 901 ft 134 kts 58°
2026-05-07 00:39 35.42872 -77.79826 909 ft 133 kts 58°
2026-05-07 00:39 35.43398 -77.78887 895 ft 133 kts 58°
2026-05-07 00:39 35.43928 -77.77963 896 ft 132 kts 58°
2026-05-07 00:39 35.44450 -77.77046 897 ft 130 kts 58°
2026-05-07 00:40 35.44971 -77.76130 892 ft 132 kts 58°
2026-05-07 00:40 35.45480 -77.75188 896 ft 132 kts 58°
2026-05-07 00:40 35.46011 -77.74268 897 ft 132 kts 58°
2026-05-07 00:40 35.46532 -77.73337 893 ft 132 kts 58°
2026-05-07 00:41 35.47044 -77.72430 898 ft 131 kts 58°
2026-05-07 00:41 35.47576 -77.71494 884 ft 145 kts 58°
2026-05-07 00:41 35.48185 -77.70388 885 ft 165 kts 58°
2026-05-07 00:41 35.48844 -77.69187 884 ft 173 kts 58°
2026-05-07 00:42 35.49520 -77.67945 893 ft 176 kts 58°
2026-05-07 00:42 35.50200 -77.66685 897 ft 177 kts 58°
2026-05-07 00:42 35.50878 -77.65428 896 ft 177 kts 58°
2026-05-07 00:42 35.51550 -77.64168 892 ft 177 kts 58°
2026-05-07 00:43 35.52239 -77.62903 892 ft 179 kts 58°
2026-05-07 00:43 35.52936 -77.61626 894 ft 180 kts 58°
2026-05-07 00:43 35.53638 -77.60357 894 ft 180 kts 58°
2026-05-07 00:43 35.54339 -77.59082 880 ft 179 kts 58°
2026-05-07 00:44 35.55041 -77.57842 884 ft 179 kts 58°
2026-05-07 00:44 35.55754 -77.56606 885 ft 177 kts 58°
2026-05-07 00:44 35.56465 -77.55361 886 ft 179 kts 58°
2026-05-07 00:44 35.57183 -77.54114 883 ft 179 kts 55°
2026-05-07 00:45 35.57944 -77.52887 883 ft 182 kts 55°
2026-05-07 00:45 35.58714 -77.51654 911 ft 180 kts 55°
2026-05-07 00:45 35.59459 -77.50412 904 ft 180 kts 55°
2026-05-07 00:45 35.60197 -77.49177 897 ft 178 kts 55°
2026-05-07 00:46 35.60926 -77.47960 901 ft 177 kts 55°
2026-05-07 00:46 35.61599 -77.46692 903 ft 178 kts 60°
2026-05-07 00:46 35.62221 -77.45396 907 ft 162 kts 61°
2026-05-07 00:46 35.62729 -77.44349 917 ft 127 kts 61°
2026-05-07 00:47 35.63159 -77.43509 918 ft 110 kts 61°
2026-05-07 00:47 35.63557 -77.42758 912 ft 101 kts 61°
2026-05-07 00:47 35.63926 -77.42057 911 ft 94 kts 61°
2026-05-07 00:47 35.64250 -77.41396 900 ft 87 kts 61°
2026-05-07 00:48 35.64576 -77.40788 903 ft 85 kts 61°
2026-05-07 00:48 35.64892 -77.40179 902 ft 83 kts 61°
2026-05-07 00:48 35.65214 -77.39588 901 ft 83 kts 61°
2026-05-07 00:48 35.65530 -77.38993 900 ft 83 kts 61°
2026-05-07 00:49 35.65851 -77.38416 901 ft 82 kts 61°
2026-05-07 00:49 35.66191 -77.37852 900 ft 82 kts 61°
2026-05-07 00:49 35.66515 -77.37278 900 ft 82 kts 61°
2026-05-07 00:49 35.66829 -77.36696 900 ft 82 kts 61°
2026-05-07 00:50 35.67158 -77.36124 901 ft 82 kts 61°
2026-05-07 00:50 35.67482 -77.35559 901 ft 82 kts 61°
2026-05-07 00:50 35.67823 -77.34948 899 ft 83 kts 61°
2026-05-07 00:50 35.68142 -77.34393 899 ft 83 kts 61°
2026-05-07 00:51 35.68473 -77.33820 901 ft 82 kts 61°
2026-05-07 00:51 35.68796 -77.33245 898 ft 81 kts 61°
2026-05-07 00:51 35.69119 -77.32681 899 ft 80 kts 61°
2026-05-07 00:51 35.69450 -77.32137 899 ft 79 kts 61°
2026-05-07 00:52 35.69781 -77.31595 899 ft 79 kts 61°
2026-05-07 00:52 35.70093 -77.31035 900 ft 79 kts 61°
2026-05-07 00:52 35.70406 -77.30481 899 ft 79 kts 61°
2026-05-07 00:52 35.70751 -77.29900 902 ft 89 kts 60°
2026-05-07 00:53 35.71206 -77.29081 1351 ft 152 kts 58°
2026-05-07 00:53 35.71874 -77.27818 1628 ft 189 kts 57°
2026-05-07 00:53 35.72557 -77.26540 1606 ft 170 kts 57°
2026-05-07 00:53 35.73180 -77.25352 1621 ft 161 kts 57°
2026-05-07 00:54 35.73775 -77.24205 1624 ft 157 kts 57°
2026-05-07 00:54 35.74370 -77.23089 1628 ft 156 kts 57°
2026-05-07 00:54 35.74989 -77.21979 1630 ft 157 kts 57°
2026-05-07 00:54 35.75600 -77.20860 1630 ft 159 kts 57°
2026-05-07 00:55 35.76214 -77.19732 1631 ft 158 kts 57°
2026-05-07 00:55 35.76848 -77.18621 1621 ft 158 kts 57°
2026-05-07 00:55 35.77483 -77.17514 1628 ft 160 kts 57°
2026-05-07 00:55 35.78117 -77.16381 1634 ft 160 kts 57°
2026-05-07 00:56 35.78747 -77.15251 1643 ft 158 kts 57°
2026-05-07 00:56 35.79375 -77.14158 1630 ft 157 kts 57°
2026-05-07 00:56 35.80014 -77.13053 1698 ft 157 kts 57°
2026-05-07 00:56 35.80640 -77.11931 1637 ft 158 kts 57°
2026-05-07 00:57 35.81246 -77.10796 1617 ft 158 kts 57°
2026-05-07 00:57 35.81859 -77.09676 1629 ft 158 kts 57°
2026-05-07 00:57 35.82489 -77.08560 1628 ft 158 kts 57°
2026-05-07 00:57 35.83103 -77.07434 1626 ft 158 kts 57°
2026-05-07 00:58 35.83714 -77.06322 1627 ft 156 kts 57°
2026-05-07 00:58 35.84334 -77.05226 1627 ft 156 kts 57°
2026-05-07 00:58 35.84945 -77.04117 1628 ft 157 kts 57°
2026-05-07 00:58 35.85563 -77.03002 1626 ft 157 kts 57°
2026-05-07 00:59 35.86794 -77.00817 1637 ft 155 kts 57°
2026-05-07 00:59 35.87399 -76.99725 1623 ft 153 kts 57°
2026-05-07 00:59 35.88008 -76.98629 1644 ft 153 kts 57°
2026-05-07 01:00 35.88631 -76.97543 1600 ft 155 kts 57°
2026-05-07 01:00 35.89254 -76.96451 1616 ft 155 kts 57°
2026-05-07 01:00 35.89853 -76.95371 1622 ft 154 kts 57°
2026-05-07 01:00 35.90464 -76.94257 1628 ft 155 kts 57°
2026-05-07 01:01 35.91054 -76.93168 1627 ft 155 kts 57°
2026-05-07 01:01 35.91661 -76.92077 1629 ft 153 kts 57°
2026-05-07 01:01 35.92257 -76.90985 1631 ft 153 kts 57°
2026-05-07 01:01 35.92840 -76.89888 1629 ft 153 kts 57°
2026-05-07 01:02 35.93430 -76.88793 1626 ft 153 kts 57°
2026-05-07 01:02 35.94030 -76.87699 1629 ft 154 kts 57°
2026-05-07 01:02 35.94631 -76.86601 1628 ft 154 kts 57°
2026-05-07 01:02 35.95250 -76.85506 1634 ft 156 kts 57°
2026-05-07 01:03 35.95878 -76.84405 1633 ft 157 kts 57°
2026-05-07 01:03 35.96502 -76.83298 1638 ft 157 kts 57°
2026-05-07 01:03 35.97125 -76.82182 1638 ft 158 kts 57°
2026-05-07 01:03 35.97749 -76.81064 1637 ft 158 kts 57°
2026-05-07 01:04 35.98372 -76.79965 1642 ft 158 kts 57°
2026-05-07 01:04 35.98995 -76.78845 1643 ft 158 kts 57°
2026-05-07 01:04 35.99608 -76.77722 1640 ft 158 kts 57°
2026-05-07 01:04 36.00236 -76.76604 1645 ft 159 kts 57°
2026-05-07 01:05 36.00867 -76.75475 1646 ft 160 kts 57°
2026-05-07 01:05 36.01486 -76.74342 1650 ft 158 kts 57°
2026-05-07 01:05 36.02105 -76.73223 1651 ft 159 kts 57°
2026-05-07 01:05 36.02532 -76.71911 1649 ft 171 kts 76°
2026-05-07 01:06 36.02909 -76.70469 1651 ft 180 kts 76°
2026-05-07 01:06 36.03306 -76.68978 1649 ft 184 kts 76°
2026-05-07 01:06 36.03560 -76.67506 1650 ft 162 kts 99°
2026-05-07 01:06 36.03470 -76.66176 1662 ft 151 kts 102°
2026-05-07 01:07 36.03385 -76.64896 1661 ft 148 kts 102°
2026-05-07 01:07 36.03315 -76.63640 1660 ft 145 kts 102°
2026-05-07 01:07 36.03236 -76.62420 1659 ft 144 kts 102°
2026-05-07 01:07 36.03159 -76.61207 1659 ft 143 kts 102°
2026-05-07 01:08 36.03094 -76.59980 1658 ft 143 kts 102°
2026-05-07 01:08 36.03041 -76.58748 1658 ft 144 kts 102°
2026-05-07 01:08 36.02983 -76.57513 1653 ft 145 kts 102°
2026-05-07 01:08 36.02937 -76.56273 1657 ft 145 kts 102°
2026-05-07 01:09 36.02876 -76.55026 1661 ft 146 kts 102°
2026-05-07 01:09 36.02806 -76.53775 1655 ft 146 kts 102°
2026-05-07 01:09 36.02737 -76.52517 1654 ft 148 kts 102°
2026-05-07 01:09 36.02668 -76.51252 1658 ft 148 kts 102°
2026-05-07 01:10 36.02599 -76.49978 1651 ft 148 kts 102°
2026-05-07 01:10 36.02539 -76.48714 1653 ft 147 kts 102°
2026-05-07 01:10 36.02489 -76.47451 1652 ft 150 kts 99°
2026-05-07 01:10 36.02483 -76.46073 1647 ft 164 kts 98°
2026-05-07 01:11 36.02476 -76.44684 1657 ft 158 kts 98°
2026-05-07 01:11 36.02485 -76.43339 1655 ft 155 kts 98°
2026-05-07 01:11 36.02492 -76.42019 1654 ft 153 kts 98°
2026-05-07 01:11 36.02501 -76.40729 1652 ft 152 kts 98°
2026-05-07 01:12 36.02505 -76.39428 1650 ft 151 kts 98°
2026-05-07 01:12 36.02505 -76.38131 1648 ft 151 kts 98°
2026-05-07 01:12 36.02505 -76.36834 1646 ft 151 kts 98°
2026-05-07 01:12 36.02513 -76.35535 1646 ft 151 kts 98°
2026-05-07 01:13 36.02530 -76.34234 1647 ft 152 kts 98°
2026-05-07 01:13 36.02555 -76.32927 1644 ft 153 kts 98°
2026-05-07 01:13 36.02580 -76.31609 1642 ft 154 kts 98°
2026-05-07 01:13 36.02591 -76.30292 1641 ft 153 kts 98°
2026-05-07 01:14 36.02603 -76.28977 1641 ft 153 kts 98°
2026-05-07 01:14 36.02618 -76.27663 1638 ft 152 kts 98°
2026-05-07 01:14 36.02635 -76.26359 1630 ft 151 kts 98°
2026-05-07 01:14 36.02654 -76.25061 1632 ft 151 kts 98°
2026-05-07 01:15 36.02679 -76.23756 1630 ft 153 kts 98°
2026-05-07 01:15 36.02703 -76.22444 1634 ft 153 kts 98°
2026-05-07 01:15 36.02729 -76.21131 1640 ft 153 kts 98°
2026-05-07 01:15 36.02757 -76.19821 1639 ft 152 kts 98°
2026-05-07 01:16 36.02781 -76.18514 1639 ft 152 kts 98°
2026-05-07 01:16 36.02802 -76.17211 1641 ft 152 kts 98°
2026-05-07 01:16 36.02826 -76.15911 1640 ft 151 kts 98°
2026-05-07 01:16 36.02841 -76.14614 1640 ft 151 kts 98°
2026-05-07 01:17 36.02863 -76.13311 1637 ft 153 kts 98°
2026-05-07 01:17 36.02890 -76.12014 1639 ft 153 kts 98°
2026-05-07 01:17 36.02915 -76.10695 1639 ft 154 kts 98°
2026-05-07 01:17 36.02949 -76.09375 1644 ft 154 kts 98°
2026-05-07 01:18 36.03004 -76.08053 1634 ft 154 kts 98°
2026-05-07 01:18 36.03044 -76.06734 1645 ft 153 kts 98°
2026-05-07 01:18 36.03088 -76.05419 1646 ft 153 kts 98°
2026-05-07 01:18 36.03132 -76.04108 1645 ft 153 kts 97°
2026-05-07 01:19 36.03167 -76.02791 1648 ft 154 kts 97°
2026-05-07 01:19 36.03193 -76.01463 1650 ft 155 kts 97°
2026-05-07 01:19 36.03215 -76.00134 1646 ft 155 kts 97°
2026-05-07 01:19 36.03237 -75.98804 1646 ft 154 kts 97°
2026-05-07 01:20 36.03264 -75.97481 1647 ft 153 kts 97°
2026-05-07 01:20 36.03290 -75.96173 1647 ft 151 kts 97°
2026-05-07 01:20 36.03296 -75.94877 1650 ft 150 kts 97°
2026-05-07 01:20 36.03307 -75.93583 1650 ft 151 kts 97°
2026-05-07 01:21 36.03325 -75.92285 1651 ft 152 kts 98°
2026-05-07 01:21 36.03361 -75.90986 1647 ft 151 kts 96°
2026-05-07 01:21 36.03374 -75.89546 681 ft 186 kts 93°
2026-05-07 01:21 36.03331 -75.87982 507 ft 181 kts 95°
2026-05-07 01:22 36.03238 -75.86362 421 ft 196 kts 95°
2026-05-07 01:22 36.03049 -75.84625 238 ft 209 kts 99°
2026-05-07 01:22 36.02869 -75.82876 157 ft 202 kts 100°
2026-05-07 01:22 36.02677 -75.81166 238 ft 200 kts 101°
2026-05-07 01:23 36.02490 -75.79432 178 ft 207 kts 98°
2026-05-07 01:23 36.02307 -75.77693 106 ft 202 kts 100°
2026-05-07 01:23 36.02185 -75.76562 150 ft 199 kts 102°
2026-05-07 01:23 36.02172 -75.74245 246 ft 203 kts 92°
2026-05-07 01:24 36.02186 -75.73078 221 ft 206 kts 93°
2026-05-07 01:24 36.02197 -75.70773 156 ft 198 kts 95°
2026-05-07 01:24 36.02184 -75.69049 175 ft 201 kts 96°
2026-05-07 01:24 36.02090 -75.67895 160 ft 197 kts 104°
2026-05-07 01:25 36.01713 -75.66704 391 ft 73 kts 220°
2026-05-07 01:25 36.01411 -75.67161 181 ft 55 kts 272°
2026-05-07 01:25 36.01386 -75.67234 104 ft 18 kts 41°
2026-05-07 01:25 36.01413 -75.67198 20 ft 0 kts 19°